Theta_e
307 306 305 305 305 306 306 305 305 304 303 305 304 309 308 306 303 314 313 314 312 307 300 300 296 296 297 301 300 299 299 298 298 296 298 297 299 298 297 296 293 297 295 295 293 294 289 292 293 295 296 296 298 302 302 302 300 298 295 297 297 297 291 288 289 293 295 297 298 298 297 295 293 293 293 291 288 290 289 288 289 284 284 282 282 279 284
306 306 305 305 305 306 306 306 306 305 303 304 305 308 307 306 307 308 313 315 311 303 291 292 293 297 301 300 300 301 297 296 295 295 297 296 297 296 296 296 299 295 298 295 293 296 285 295 295 293 296 294 302 302 301 301 297 296 295 293 299 288 292 289 284 284 287 289 290 291 294 294 291 290 292 293 292 292 291 291 290 283 285 285 281 276 283
306 305 305 305 305 306 306 306 306 305 304 305 305 305 307 307 311 309 310 312 309 297 298 296 294 295 296 296 297 297 299 300 296 295 294 297 297 296 290 294 297 295 298 295 296 296 293 290 296 297 296 296 301 300 300 300 298 299 300 299 300 291 291 288 281 278 276 277 279 280 283 287 291 293 292 292 291 290 288 283 285 280 285 286 282 281 288
306 305 305 305 305 306 306 306 305 305 304 303 306 308 307 303 295 304 306 309 307 304 306 302 298 294 294 291 295 297 296 298 298 296 296 296 297 297 297 296 298 295 292 289 291 290 294 293 291 293 293 296 298 300 301 300 300 301 300 300 299 292 294 292 288 285 283 286 288 291 291 289 286 289 290 291 292 292 291 289 284 281 285 284 286 286 287
305 305 305 305 305 306 306 306 305 304 303 303 305 309 308 305 298 297 294 302 303 302 302 299 301 292 298 290 296 295 296 297 298 298 294 298 297 298 296 295 287 286 286 288 288 288 289 296 295 294 295 297 298 301 301 301 300 302 299 300 298 293 289 292 291 290 290 291 290 291 291 287 288 288 288 290 291 291 290 285 283 289 285 281 288 290 287
305 305 305 305 305 305 306 306 305 304 303 303 309 305 308 299 301 304 301 296 295 295 296 298 299 301 299 296 298 295 294 295 292 297 297 297 298 292 297 297 297 294 286 287 284 291 290 293 291 296 297 296 298 297 300 299 301 300 299 301 297 293 287 292 292 290 292 292 292 292 291 290 289 289 288 287 289 290 288 288 291 291 284 282 289 291 289
305 305 305 305 305 306 306 306 305 304 303 303 309 302 307 304 304 304 305 297 301 299 299 299 299 300 299 295 297 294 295 294 296 295 294 296 296 297 287 292 294 290 295 289 287 289 287 287 294 294 294 295 295 294 297 299 300 299 298 298 299 294 290 293 292 290 290 291 291 292 290 290 289 289 289 289 289 289 289 290 291 291 290 292 290 291 291
306 305 305 305 305 305 306 306 305 303 302 308 308 302 300 298 298 298 302 302 300 302 301 300 299 299 298 292 297 296 295 292 296 296 294 290 294 298 294 294 295 296 296 292 287 288 290 290 287 296 295 294 295 294 296 295 299 299 297 297 298 293 288 293 292 288 288 291 293 292 291 290 287 289 290 290 290 289 290 290 291 292 291 291 292 292 290
306 306 305 305 305 305 306 305 305 303 303 308 306 303 302 301 302 302 298 296 303 299 301 299 297 297 298 294 296 295 296 294 296 295 297 295 293 296 295 297 296 296 295 292 291 292 295 296 297 298 296 291 297 294 295 299 295 297 296 297 297 296 290 294 290 285 286 292 291 291 290 290 288 287 288 288 287 285 288 287 292 290 288 290 290 288 289
306 306 305 305 305 305 305 305 304 303 303 306 304 300 304 307 307 303 300 294 298 297 301 300 298 294 296 296 296 295 296 297 296 291 297 297 297 297 296 297 295 295 295 295 298 299 298 297 298 298 299 300 299 299 299 300 297 296 296 297 294 295 292 288 288 284 285 291 293 289 288 286 285 286 289 290 289 290 290 291 292 291 293 288 286 288 296
306 306 305 305 305 305 305 305 304 303 306 303 303 303 302 298 297 299 299 293 297 301 298 298 297 297 297 299 297 299 298 297 297 292 291 298 298 299 299 297 294 293 294 298 302 301 300 300 300 301 300 300 300 300 301 301 300 298 297 296 295 296 293 289 291 283 286 292 292 289 285 280 282 293 295 293 289 290 287 288 291 292 293 289 294 295 298
306 306 305 305 305 305 305 304 303 304 303 307 305 302 301 302 300 300 294 289 292 299 298 296 298 299 298 298 298 297 297 297 296 298 294 296 298 299 298 297 297 289 299 303 301 301 301 302 303 303 302 301 301 302 302 299 299 299 299 296 294 294 292 289 291 285 285 290 290 285 281 282 294 293 296 296 295 294 290 290 292 293 293 292 290 293 295
306 306 305 305 304 305 305 305 304 303 303 306 305 300 302 303 299 296 295 291 288 293 294 296 300 299 299 299 297 298 299 300 300 299 299 298 297 298 299 297 296 298 302 300 300 299 297 297 299 300 299 301 301 300 300 299 299 301 302 302 298 292 291 290 289 290 290 288 287 280 282 290 296 295 296 297 297 294 292 288 291 293 292 290 288 291 295
306 306 306 305 305 305 304 305 304 303 303 304 303 301 302 302 298 299 296 290 289 295 296 295 299 298 298 297 297 298 299 300 300 300 297 300 298 297 299 299 300 301 301 301 298 298 295 296 291 293 295 297 298 295 298 299 300 299 299 300 300 298 296 293 287 293 284 286 287 286 292 289 293 293 295 296 292 292 291 285 290 295 293 290 289 291 293
306 306 306 305 305 304 304 304 305 303 303 303 306 303 303 304 302 298 298 295 288 290 293 290 294 296 297 298 298 296 297 298 297 295 299 300 299 300 300 301 302 301 302 299 296 298 294 293 288 288 290 289 284 287 296 295 299 301 301 301 302 301 295 295 290 288 292 287 283 285 284 282 287 296 299 301 301 301 300 293 287 294 295 294 290 289 291
306 306 306 306 305 305 304 304 304 304 303 303 305 303 304 305 303 301 297 294 290 286 293 296 298 298 296 297 299 297 294 294 295 296 297 298 298 299 301 302 302 303 300 298 298 294 292 288 286 287 285 287 292 290 288 294 292 297 300 301 300 301 300 297 292 288 290 287 284 284 281 284 293 295 298 301 302 301 301 290 286 295 296 297 296 293 294
306 306 306 306 305 305 304 304 304 304 304 303 304 303 302 305 302 299 296 295 292 288 296 297 299 300 297 298 299 296 297 292 295 291 290 293 296 298 300 301 303 302 299 297 296 293 290 289 292 291 292 294 288 287 292 291 290 291 296 299 298 295 293 293 288 287 288 287 285 283 286 286 293 297 299 301 302 302 297 283 284 293 297 298 298 296 296
306 306 306 306 306 305 305 304 304 304 305 304 304 303 303 306 305 303 297 294 291 290 296 299 296 295 295 296 294 298 298 298 296 295 293 296 299 299 297 298 296 300 301 293 295 291 289 289 287 287 286 294 294 293 284 290 287 288 290 292 290 292 291 292 288 289 288 287 287 288 288 295 298 299 300 301 302 298 285 278 285 295 298 299 299 298 298
306 306 305 305 305 305 305 304 304 304 305 304 306 304 303 305 305 303 298 294 292 287 297 299 299 298 300 301 298 298 299 298 296 290 292 293 297 299 297 297 299 292 298 293 294 290 288 289 295 292 288 290 294 287 292 287 287 293 293 289 290 291 291 291 291 287 287 288 285 285 288 295 299 300 300 302 295 283 280 292 299 298 298 300 300 298 300
306 306 306 306 306 306 305 305 304 304 305 304 304 301 303 305 305 304 298 293 294 290 293 295 296 296 300 297 296 295 298 298 298 295 294 290 299 298 295 292 299 298 295 297 289 294 289 287 290 293 290 290 292 294 289 292 295 292 291 293 290 290 287 287 286 289 290 289 285 284 279 290 300 299 297 299 288 288 297 298 299 301 300 299 299 299 300
306 306 306 306 306 306 306 305 305 304 305 305 303 302 301 306 305 305 303 298 293 288 292 300 301 300 301 299 300 300 297 294 297 294 297 295 299 295 287 288 293 293 291 291 286 288 290 288 292 290 293 292 293 292 287 288 291 299 295 293 292 296 288 287 289 293 285 284 282 283 290 295 301 298 290 296 298 300 301 299 297 300 300 299 299 300 302
306 306 306 306 306 306 306 305 305 304 305 305 303 304 300 304 305 305 303 301 294 290 294 299 300 300 301 302 302 302 300 300 301 301 297 294 299 295 294 295 295 296 297 297 294 292 295 294 294 290 289 291 296 290 291 287 286 292 298 296 286 298 293 293 287 293 287 287 290 298 300 301 302 301 300 301 302 302 302 301 300 298 298 300 300 301 302
306 306 306 306 306 306 306 305 305 304 305 305 303 302 299 302 303 306 303 296 297 298 299 299 301 301 302 303 304 305 305 305 304 303 301 296 293 297 296 295 295 299 298 300 293 293 294 294 289 294 291 293 290 289 291 291 288 292 289 297 295 300 300 299 297 295 297 299 300 299 300 300 300 303 303 302 302 303 303 301 299 299 300 302 302 302 302
306 306 306 306 306 306 306 306 305 305 304 305 304 303 301 303 304 303 301 299 295 290 294 298 297 294 299 300 304 306 304 303 303 305 306 303 292 293 299 300 301 299 298 300 301 294 294 293 293 295 288 294 295 289 286 287 289 294 293 292 296 298 298 296 294 296 292 287 298 297 297 298 300 301 302 303 303 302 302 301 300 301 302 303 302 302 304
306 306 306 306 306 306 306 306 306 305 305 305 305 305 304 302 303 302 299 290 291 290 286 291 293 299 302 304 305 303 305 306 307 306 304 304 300 295 296 301 302 299 298 300 301 298 296 291 293 293 287 295 296 288 294 290 290 296 289 292 295 293 299 296 295 293 290 290 296 298 299 299 301 300 299 299 300 302 303 302 302 302 302 302 301 302 303
306 306 306 306 306 306 306 306 306 305 305 304 305 303 301 300 304 304 300 299 297 293 286 287 294 303 304 301 300 303 306 307 306 305 304 303 303 302 300 302 302 304 302 301 299 294 293 292 293 293 290 290 299 291 291 295 293 297 293 293 299 297 299 289 294 291 294 297 297 296 297 298 298 298 300 300 300 301 302 302 302 303 301 300 302 303 303
306 306 306 306 306 306 306 306 306 305 305 305 304 304 303 303 305 302 298 297 292 289 291 288 294 300 303 299 302 304 304 304 305 304 303 304 303 303 302 301 299 299 299 298 299 295 293 291 291 291 295 294 298 296 296 295 295 291 291 296 299 297 292 295 293 288 288 290 292 294 287 287 293 297 298 299 301 301 301 301 301 301 301 301 301 302 304
306 306 306 306 306 306 306 306 306 305 305 305 305 304 305 303 304 305 305 301 295 289 290 290 291 296 301 299 303 303 304 304 304 303 302 302 303 303 302 300 300 297 297 295 292 292 291 289 291 295 297 298 295 293 298 299 297 295 295 293 296 292 293 292 288 287 287 293 295 295 294 293 296 297 299 300 301 301 299 300 301 301 302 302 301 302 304
306 306 306 306 306 306 306 306 306 305 305 304 304 303 302 305 306 306 305 305 301 295 292 292 295 294 290 299 304 302 304 304 304 303 302 302 302 303 301 301 299 299 298 296 294 293 292 293 295 294 294 300 296 292 295 289 289 288 293 296 296 296 297 295 294 294 295 297 296 296 294 292 295 298 299 300 302 300 300 301 302 302 303 301 301 303 303
306 306 306 306 306 306 306 306 306 305 305 305 302 298 294 298 306 306 306 305 303 299 289 287 286 291 302 301 300 302 301 303 303 303 302 302 302 302 302 301 300 300 299 295 294 290 293 294 294 300 301 304 296 293 290 291 290 290 296 297 298 298 298 298 298 294 292 296 297 296 295 296 298 300 300 300 301 301 300 300 301 302 302 302 302 302 302
306 306 306 306 306 306 306 306 306 305 304 302 299 291 289 290 299 304 304 304 304 298 292 290 287 293 292 302 303 301 302 302 303 302 302 303 303 303 304 303 302 301 295 295 294 293 294 292 293 296 300 301 296 293 292 291 289 291 294 296 297 297 297 297 298 298 297 297 296 296 297 297 299 298 297 298 300 301 301 301 302 302 302 303 303 303 302
306 306 306 306 306 306 306 306 306 304 304 300 296 295 297 299 301 303 304 304 303 297 290 286 287 290 291 296 303 305 303 303 302 302 302 304 302 303 303 302 300 302 298 295 295 294 293 294 294 296 296 299 296 294 294 292 288 290 295 296 298 297 297 297 297 298 298 297 295 293 293 294 295 294 294 298 300 301 300 300 301 302 301 303 304 303 302
306 306 306 306 306 306 306 306 306 304 303 304 305 305 302 303 304 304 304 304 300 295 296 288 285 289 288 294 300 303 303 303 301 302 300 304 301 303 300 303 302 300 303 296 293 291 297 294 294 294 299 302 293 293 292 288 289 294 295 296 296 296 296 296 297 297 296 295 294 290 289 292 294 296 298 299 299 299 299 299 300 301 301 301 301 301 301
306 306 306 306 306 306 306 306 306 304 304 302 297 299 304 303 304 304 305 302 298 297 293 288 285 285 287 297 294 301 302 297 298 300 294 302 304 301 298 300 301 294 298 295 296 295 296 296 293 294 299 293 297 292 287 290 293 294 295 295 295 294 294 294 294 294 294 294 295 296 296 296 297 297 298 297 298 299 300 299 299 298 298 299 299 300 300
306 306 306 306 306 306 306 305 303 300 297 298 299 303 308 304 303 304 303 299 290 287 287 288 289 286 287 290 289 295 301 299 296 299 294 299 305 299 300 294 297 292 295 302 295 294 293 294 298 291 290 297 291 288 289 292 293 294 294 293 293 293 292 291 291 293 294 295 296 296 297 296 295 294 294 295 295 296 297 297 298 297 296 297 298 299 299
305 306 306 306 306 306 305 303 302 298 295 296 299 304 306 305 304 304 303 302 296 290 287 288 288 286 288 285 287 294 302 297 299 300 298 299 299 302 299 296 291 295 301 296 292 297 293 299 295 289 293 289 287 289 291 292 292 292 292 291 292 291 290 290 291 292 294 295 296 296 296 295 294 294 294 294 295 295 295 295 296 296 296 295 296 297 298
305 305 306 305 305 301 297 296 302 300 298 305 304 303 304 303 303 303 301 298 299 299 291 289 286 288 290 289 292 294 299 291 299 296 298 293 292 296 296 293 290 294 295 293 293 291 295 302 293 290 289 288 288 292 292 293 292 291 291 292 292 292 292 292 293 293 293 294 294 294 294 293 293 293 293 293 294 294 294 294 294 294 294 294 295 295 296
305 305 304 300 298 292 291 294 298 303 304 302 302 299 298 298 290 291 292 289 294 294 290 291 286 291 294 291 288 300 298 294 299 293 293 296 292 292 294 291 292 292 287 290 293 301 296 293 291 289 288 292 293 293 293 293 293 293 292 292 293 293 293 293 293 292 291 290 291 291 291 292 291 292 292 292 293 292 293 294 295 295 295 295 295 295 295
304 303 301 300 295 291 291 296 305 304 304 303 304 293 289 291 289 286 286 289 289 287 290 289 287 292 292 291 293 301 298 294 292 295 290 297 291 288 293 288 292 291 289 289 292 300 289 291 290 289 286 289 289 291 293 293 293 294 294 294 294 294 294 293 294 292 291 291 291 292 291 289 289 290 291 291 292 293 294 294 294 295 295 295 294 294 295
301 296 295 294 292 293 300 303 304 302 300 292 293 290 286 290 286 284 290 285 285 289 291 286 292 293 295 292 292 293 302 296 289 289 291 294 300 290 292 291 293 289 285 285 289 298 289 285 290 288 286 288 289 293 294 293 293 293 294 294 294 294 294 293 293 294 294 294 294 294 294 293 293 292 291 291 291 291 292 293 293 294 294 294 292 293 293
301 300 297 292 296 298 300 302 303 300 292 287 287 287 287 284 288 289 287 285 286 288 294 293 295 293 296 296 296 292 301 302 301 300 296 290 298 295 290 286 293 287 285 285 291 292 290 288 287 286 285 288 290 292 293 293 293 293 294 294 294 293 294 294 294 295 294 293 293 293 294 294 293 293 292 292 292 291 292 292 292 292 293 293 292 293 294
302 300 300 301 301 301 299 297 292 288 288 289 285 283 286 287 289 288 288 284 285 290 293 294 291 293 294 296 296 297 296 302 301 296 293 288 293 291 289 290 291 286 283 290 296 291 289 284 285 285 287 290 291 293 293 292 293 292 293 293 293 294 294 294 293 294 294 293 293 293 293 294 293 293 292 292 292 291 291 292 292 292 292 292 293 293 293
301 301 299 295 292 290 291 286 288 288 283 282 282 281 285 283 285 284 286 290 295 294 293 301 299 301 302 302 298 300 297 302 295 292 291 289 295 293 288 288 287 282 287 294 290 287 285 284 284 285 289 290 292 292 292 293 293 293 294 294 294 294 294 293 293 293 294 294 293 293 292 293 293 292 293 292 292 292 292 292 291 292 292 292 292 292 293
298 297 291 288 287 287 289 280 289 285 283 285 283 279 283 282 285 287 286 288 292 291 296 294 295 295 291 299 296 294 294 297 295 293 292 293 290 287 287 284 285 292 296 289 287 284 285 287 286 288 290 291 292 292 293 293 293 293 292 292 292 293 292 293 293 292 292 293 293 293 292 292 292 292 292 292 291 290 290 291 291 291 292 292 291 291 292
290 286 287 286 285 287 285 280 289 285 281 284 286 286 286 283 286 288 287 294 296 293 297 298 297 296 294 298 296 297 294 291 296 289 287 291 287 289 286 285 289 290 286 283 285 286 286 284 288 289 290 290 292 292 293 292 292 291 291 291 292 292 292 292 292 291 291 292 292 292 291 291 291 290 291 291 291 291 290 290 291 291 291 291 290 290 291
288 286 286 283 280 284 286 283 284 281 287 289 287 289 289 291 292 291 295 297 295 295 296 297 297 296 294 296 291 291 293 292 290 289 291 290 286 284 289 293 291 285 284 284 282 282 284 287 288 290 291 291 291 292 292 291 291 291 291 290 291 291 292 291 291 291 291 291 291 291 291 291 290 290 290 290 290 290 290 290 291 291 290 290 289 289 290
287 288 288 288 283 286 289 284 286 288 290 290 292 292 293 294 296 297 298 298 296 298 298 299 297 296 292 292 291 292 293 293 288 291 291 286 285 288 291 286 282 283 280 280 281 283 285 287 289 291 291 291 291 292 291 291 291 291 290 291 291 290 291 290 290 290 291 291 291 291 290 290 290 290 290 290 290 290 290 290 290 291 290 289 289 289 289
286 289 289 283 282 286 284 287 294 294 294 293 293 295 295 296 295 294 296 297 298 298 296 296 293 295 293 298 295 290 291 291 288 289 291 288 289 286 284 283 283 284 285 282 283 287 287 289 290 291 292 292 291 291 291 291 291 291 290 290 290 290 290 290 290 290 290 290 290 290 290 290 290 289 289 289 289 290 290 290 290 291 290 290 289 288 288
289 287 286 286 289 290 289 292 291 289 291 293 295 295 294 293 293 295 297 297 296 296 297 295 293 291 288 292 290 289 286 291 285 285 289 287 283 280 281 279 280 280 285 287 287 288 290 291 292 291 291 291 292 291 291 291 290 290 289 289 290 290 290 290 290 290 290 290 290 289 289 289 289 289 289 289 288 289 290 290 290 290 289 289 288 288 287
287 287 288 288 289 290 293 293 290 287 291 292 292 292 295 294 294 295 298 296 297 296 296 296 295 291 290 290 286 288 287 290 288 288 286 283 284 284 283 280 282 283 285 289 289 289 291 292 292 291 291 290 290 290 290 290 289 289 290 290 291 290 290 290 290 290 290 290 290 290 289 289 289 288 288 288 288 289 290 289 289 289 289 289 289 288 286
289 288 289 294 289 288 289 285 285 286 288 289 290 291 293 293 293 294 299 297 296 294 292 289 290 289 288 287 285 282 285 291 287 285 285 284 287 285 282 281 284 287 289 291 292 292 292 292 292 291 291 290 290 290 290 290 290 290 290 291 290 291 290 291 290 290 290 290 290 287 288 289 289 289 289 290 289 288 288 288 288 288 288 288 289 288 287
287 285 287 291 293 293 292 292 291 292 293 293 292 293 294 292 294 296 298 296 295 291 289 292 290 288 286 283 286 289 291 288 285 286 284 286 288 284 284 286 288 290 291 291 291 291 291 292 292 290 290 290 289 290 291 291 290 290 290 290 290 290 290 290 290 289 289 289 289 289 289 290 289 289 289 289 288 288 286 286 287 288 288 288 288 288 288
Wind_Speed
17 18 18 19 20 21 23 23 22 21 24 13 11 10 6 4 4 5 6 6 6 6 3 2 3 4 5 3 4 3 4 5 5 7 2 5 3 6 6 4 6 4 5 7 8 8 6 10 5 9 8 8 8 5 8 6 9 8 4 7 2 3 6 7 9 9 12 12 9 5 4 6 9 9 9 9 11 10 12 11 11 13 13 12 12 14 13
16 17 18 19 20 22 23 23 23 20 19 12 11 8 5 5 5 1 5 7 6 5 4 4 3 5 2 1 2 1 3 6 6 5 4 2 3 6 3 3 6 7 8 8 9 7 5 4 10 9 9 9 8 8 4 6 6 7 4 8 4 5 1 7 10 9 6 2 2 3 2 5 7 8 7 9 11 13 13 15 12 13 17 18 14 15 13
15 16 17 19 20 20 22 22 21 20 20 16 8 7 7 8 5 4 1 3 7 5 5 5 2 5 6 4 3 6 3 2 4 6 7 4 5 6 1 3 6 7 7 9 9 9 9 10 11 9 9 10 10 6 7 5 11 8 7 6 6 7 8 8 9 10 11 9 6 5 7 9 9 11 14 13 13 14 11 12 10 13 16 18 13 14 16
14 15 17 17 18 19 19 20 21 21 20 20 9 6 7 6 3 6 2 3 1 5 2 4 5 4 6 3 5 4 5 0 3 5 7 5 5 6 5 2 3 6 5 6 8 7 9 9 5 9 10 10 7 10 12 11 12 8 1 1 6 7 8 9 9 10 11 11 11 10 11 11 12 15 15 16 17 17 16 13 14 15 14 15 18 18 18
13 14 16 15 17 17 18 20 21 22 22 17 9 7 5 5 4 5 6 7 2 4 3 6 4 3 6 2 6 7 7 6 1 4 4 4 2 5 7 5 3 1 1 4 6 6 7 9 11 10 11 11 11 13 13 11 5 11 2 3 5 7 10 10 12 14 15 17 18 16 15 17 18 20 16 17 17 17 16 13 16 15 15 18 18 16 16
12 14 15 15 16 18 18 19 21 22 23 19 8 6 5 3 3 3 4 5 4 5 4 8 6 2 5 2 5 7 9 7 4 5 3 4 5 4 2 6 8 5 4 2 5 8 9 11 7 10 11 12 12 12 10 8 8 1 4 3 6 7 9 13 12 16 17 17 19 17 15 15 17 19 19 20 19 19 19 21 20 19 16 20 22 18 21
12 13 13 14 16 17 17 19 19 22 24 20 7 7 2 3 3 1 2 4 4 5 6 7 6 6 4 4 3 7 10 9 7 5 6 6 5 5 4 5 6 5 7 4 6 8 10 6 10 9 12 13 13 11 11 1 0 2 3 4 4 6 10 12 11 17 19 18 18 17 18 18 17 18 18 19 20 21 22 23 23 23 23 24 26 27 26
10 12 13 13 15 15 17 17 18 22 25 17 3 6 6 5 6 4 4 6 7 4 5 5 5 6 5 4 7 6 7 6 9 7 6 4 7 3 7 8 9 9 12 6 8 7 9 12 14 12 14 15 9 10 9 8 6 4 5 5 1 3 6 10 13 13 18 17 14 12 15 14 17 18 16 15 15 17 20 20 23 24 24 24 24 25 25
9 11 12 12 13 15 15 16 17 21 22 6 5 4 6 4 5 5 6 6 3 2 5 6 5 5 2 6 8 8 7 9 10 11 8 9 8 6 10 10 11 11 10 5 8 10 16 15 16 16 15 14 12 9 7 8 11 11 9 5 5 5 10 11 9 10 14 12 7 5 7 11 13 16 16 15 15 16 11 11 12 10 16 19 21 19 18
9 10 11 11 12 13 13 13 16 19 22 5 6 6 5 6 6 3 4 4 1 6 6 6 5 2 6 5 9 8 11 9 9 8 6 4 4 6 8 9 9 10 11 11 10 9 11 15 17 16 16 16 16 13 14 13 11 10 9 7 8 6 7 6 8 11 12 14 5 2 2 6 8 6 7 12 12 12 14 15 17 16 17 15 14 16 15
8 9 10 10 10 11 11 11 12 17 13 7 7 6 5 6 6 7 5 5 6 3 5 5 6 4 6 6 9 8 9 10 7 8 3 7 9 8 8 9 9 9 11 10 10 13 17 18 19 17 18 19 17 13 13 14 11 10 9 7 6 7 7 7 6 5 10 14 14 1 3 5 6 1 7 7 7 13 14 14 14 15 11 11 14 18 21
8 8 8 9 9 9 9 8 10 13 13 7 6 4 4 4 4 4 4 4 4 7 6 6 6 5 7 8 9 11 13 11 10 8 12 11 13 12 11 11 9 9 7 12 15 16 20 20 21 20 21 18 14 12 13 13 8 6 7 9 8 9 7 7 5 5 8 13 13 8 8 1 4 4 8 11 11 12 16 20 19 18 16 17 17 17 20
8 8 7 7 8 8 8 7 6 9 12 8 5 4 3 4 3 3 4 4 4 6 6 7 6 5 6 10 12 10 11 11 9 10 11 11 12 10 7 8 10 12 13 15 17 17 15 15 15 10 5 10 11 10 9 8 8 7 7 8 8 6 6 4 6 6 9 8 7 9 6 5 2 6 6 9 10 10 14 17 15 15 11 13 15 17 18
7 7 7 6 6 6 7 7 5 5 8 10 4 4 3 4 3 3 3 2 5 6 8 9 6 5 9 11 11 11 10 9 7 10 11 8 9 10 10 8 9 10 11 12 13 12 10 8 7 8 2 4 5 5 5 5 6 8 8 9 9 9 8 5 7 7 7 8 10 11 2 7 8 6 9 11 12 13 11 15 9 7 2 8 12 18 18
8 7 7 7 6 6 6 6 4 3 4 7 4 3 3 2 2 2 2 3 5 8 8 3 8 11 12 11 9 9 9 9 9 7 11 9 9 6 8 8 7 9 10 10 8 8 7 7 6 6 5 4 4 4 3 5 6 9 8 8 8 7 8 4 6 4 5 10 12 8 9 5 8 14 17 19 19 17 16 2 3 4 5 7 12 17 19
8 7 7 7 7 6 6 5 4 1 3 7 4 2 2 2 1 1 1 2 2 3 4 9 9 10 10 9 9 10 9 8 7 9 8 9 8 10 7 6 8 8 9 8 7 6 6 7 7 7 6 5 6 6 4 6 4 4 5 7 7 8 8 9 8 8 8 9 9 7 5 3 9 16 21 23 20 22 10 2 2 5 19 13 14 18 16
9 8 8 7 7 6 5 5 5 4 2 6 4 3 2 1 2 1 2 3 4 6 9 10 9 9 9 7 7 8 7 6 8 8 8 7 11 10 6 9 9 7 7 7 7 5 5 5 8 7 5 4 6 6 10 5 8 7 4 6 7 6 6 7 7 6 6 10 9 8 2 3 16 20 21 21 21 20 8 7 9 16 20 18 17 18 16
10 9 8 8 7 7 7 6 5 4 3 4 6 4 2 2 2 2 3 4 4 6 4 4 7 7 6 8 10 9 7 7 7 7 7 9 10 7 11 9 8 2 3 5 5 5 5 5 5 5 6 5 5 7 6 8 9 8 9 10 7 5 5 5 8 8 9 11 7 6 2 2 16 20 24 17 20 12 10 13 13 19 19 19 18 17 15
11 10 9 8 7 7 6 7 6 5 3 5 6 5 3 1 2 3 4 4 4 5 4 8 11 11 11 10 9 9 8 9 6 5 6 6 5 10 13 5 4 3 3 6 6 5 4 5 5 5 6 5 5 5 7 6 8 9 9 9 9 6 6 4 6 9 9 8 10 8 3 4 19 20 17 14 14 11 17 8 13 16 19 18 16 19 17
12 11 10 10 9 9 9 8 7 5 5 6 6 5 4 2 3 5 5 6 5 10 11 11 9 11 9 10 9 7 7 7 6 8 8 9 11 14 11 5 4 4 7 4 6 1 2 5 6 5 6 6 5 6 6 8 10 9 7 6 6 7 7 7 8 7 7 6 9 9 9 6 22 25 13 14 11 10 8 12 15 14 17 18 19 17 16
12 12 11 11 10 10 10 10 8 6 5 7 7 5 4 4 3 4 6 6 6 8 6 4 6 11 12 13 12 12 12 10 8 9 9 9 9 7 5 3 8 5 3 4 6 6 3 5 8 6 5 6 6 6 6 8 11 1 4 7 5 7 6 5 5 6 8 8 7 5 6 11 14 17 13 15 10 10 13 12 14 16 14 14 13 17 17
12 11 11 12 11 11 11 11 9 8 5 6 8 6 6 2 6 3 5 6 8 8 8 12 14 16 16 15 14 13 14 14 12 10 10 9 6 7 6 8 6 6 4 5 6 5 4 5 6 5 6 7 5 6 9 8 7 6 5 6 4 6 4 4 9 7 3 7 9 8 10 10 13 15 14 17 16 16 18 18 12 13 13 17 12 15 19
12 13 13 13 13 12 12 11 10 9 7 6 8 5 6 5 3 2 4 7 7 9 12 14 13 14 14 17 16 13 13 12 12 10 9 8 6 6 6 6 3 6 5 4 5 6 7 7 6 6 7 6 6 8 9 8 7 6 7 5 4 3 3 8 7 5 12 11 5 7 10 15 17 14 14 17 18 19 19 20 14 13 13 13 13 18 20
13 13 14 14 13 13 12 12 11 9 8 8 9 6 6 4 5 5 6 7 7 8 8 7 6 4 3 4 2 7 10 10 11 11 9 8 7 5 6 4 4 4 2 5 4 5 6 5 7 7 7 6 8 7 7 6 6 8 9 6 5 3 8 10 7 12 13 5 9 11 17 18 17 16 17 16 17 18 19 19 19 17 15 16 19 19 19
14 13 14 14 14 13 13 13 11 11 9 9 10 9 7 6 6 5 5 4 3 3 7 6 11 10 8 6 6 9 9 9 8 8 9 9 11 10 4 7 5 6 6 4 3 5 3 6 7 6 7 6 6 7 6 8 7 5 8 7 8 3 12 9 11 14 9 11 13 17 19 19 12 13 17 20 22 21 20 19 19 19 17 18 21 21 20
14 14 14 14 14 14 14 14 13 11 9 10 9 8 7 6 4 4 4 6 6 4 5 6 6 5 7 10 11 9 11 12 9 8 12 12 12 12 11 9 7 3 5 5 5 5 4 5 5 6 8 5 3 7 7 7 11 10 9 7 5 9 10 6 12 11 12 12 14 20 22 9 10 18 17 18 20 21 22 24 23 22 19 21 25 22 20
15 15 14 14 15 15 14 13 12 11 10 10 8 8 8 7 7 6 6 4 5 5 6 8 8 10 8 14 15 12 11 12 11 11 11 13 13 11 10 9 8 7 7 7 5 4 3 5 5 7 6 7 7 9 9 10 8 6 6 6 9 6 6 10 11 10 10 12 16 19 15 14 17 18 21 22 21 20 22 22 22 22 19 20 24 24 22
15 15 14 14 15 16 15 13 12 11 10 10 8 7 7 9 8 8 8 6 6 6 8 9 11 13 16 19 10 7 9 9 9 10 10 11 11 10 10 9 9 8 7 6 5 5 5 6 7 4 7 8 7 7 7 9 8 7 3 6 7 6 7 8 7 9 11 16 16 14 14 15 16 20 21 20 19 20 22 22 23 23 22 22 22 23 22
15 15 15 15 15 15 15 14 12 10 10 8 6 6 8 10 10 9 9 7 7 7 8 10 12 12 7 5 9 11 10 11 9 9 9 10 10 10 10 10 9 8 7 6 6 6 7 8 6 7 7 4 4 7 8 8 5 3 4 5 6 5 4 7 8 11 12 13 14 15 13 15 19 20 20 19 18 20 22 21 21 22 23 22 22 20 20
15 15 15 15 16 17 16 14 13 11 10 7 5 4 5 6 8 7 4 7 7 4 3 4 7 3 8 9 9 6 5 8 9 9 10 9 9 9 9 9 9 9 8 6 5 7 6 6 6 9 10 5 6 5 8 7 5 4 4 6 6 7 8 7 8 9 11 14 14 15 16 17 16 16 17 17 19 20 19 20 21 22 22 22 20 19 19
16 16 16 17 17 16 16 14 13 12 11 7 4 2 2 3 5 2 3 2 4 4 2 3 8 9 9 8 9 9 9 8 8 9 10 10 9 9 8 8 8 8 6 6 6 8 6 8 6 8 8 7 5 5 8 8 7 3 7 8 8 8 9 9 9 10 11 12 14 16 15 13 13 16 16 17 20 20 19 19 22 21 23 21 19 18 16
16 16 17 16 15 15 14 14 14 15 11 10 10 4 1 3 5 6 5 4 4 4 2 5 7 5 4 6 5 5 8 8 7 6 6 6 8 8 9 9 7 8 7 6 5 6 9 7 9 10 10 2 6 8 9 7 5 5 11 10 9 9 10 10 11 10 9 12 15 17 14 13 13 16 18 21 20 19 19 20 21 21 21 19 17 17 18
16 16 15 14 14 14 15 15 15 14 10 7 7 5 5 3 8 8 5 5 3 3 2 3 5 4 4 4 9 11 8 6 7 7 6 8 6 6 7 7 7 7 5 4 6 5 5 6 5 8 6 4 3 4 3 2 3 6 8 9 9 10 11 11 10 9 10 11 11 13 15 17 19 20 19 18 18 18 20 20 20 19 20 20 21 22 21
16 15 15 14 14 14 15 15 14 14 6 4 8 9 7 11 9 8 6 3 2 2 2 3 4 5 7 6 9 2 5 6 6 7 5 8 5 6 6 6 6 6 6 8 6 7 7 6 7 6 4 5 4 3 3 3 3 7 8 8 9 10 10 10 9 9 11 12 12 12 12 13 15 15 15 17 18 18 18 18 20 22 22 20 21 21 21
16 15 14 13 14 13 12 13 10 9 8 8 7 3 6 15 12 11 9 5 3 2 2 3 3 6 7 4 5 1 2 5 6 3 4 5 6 7 4 3 3 5 3 6 6 7 7 7 5 6 6 2 1 4 2 5 7 7 8 8 9 10 10 10 8 11 12 13 13 12 12 15 16 15 16 17 17 18 20 19 20 21 20 19 20 21 21
14 14 13 13 11 10 7 11 8 7 7 7 3 4 10 13 13 10 10 8 6 3 3 4 3 6 5 6 5 1 3 7 6 4 6 3 7 7 7 5 7 8 5 5 6 6 8 7 4 5 3 3 3 1 3 4 7 7 7 8 9 9 10 11 13 15 14 14 14 13 14 14 15 16 15 17 17 18 19 19 20 20 20 19 20 20 19
14 13 13 11 8 5 6 5 5 7 4 4 8 9 8 6 4 4 4 6 4 2 5 3 7 8 6 5 3 4 5 5 5 6 5 5 5 2 5 4 6 1 3 6 8 8 4 6 2 3 2 4 2 0 1 3 4 6 7 7 7 8 9 10 11 13 15 15 14 12 13 15 16 15 16 17 18 18 19 20 20 20 22 22 21 19 20
13 14 9 6 5 3 2 4 5 8 15 15 12 6 4 5 2 2 2 2 3 4 5 5 9 8 7 7 7 2 3 5 3 3 3 2 2 4 3 4 3 2 6 5 5 4 4 1 4 3 1 2 3 1 2 2 3 3 5 6 7 8 9 10 11 13 14 16 16 18 18 17 16 17 17 18 18 19 17 16 17 16 17 17 17 18 19
14 8 6 6 5 5 4 5 11 17 9 4 2 1 1 2 2 2 4 3 2 5 5 7 10 10 10 11 11 9 9 5 4 4 5 4 1 3 2 5 2 1 5 6 2 4 6 4 2 2 4 5 3 1 1 1 2 3 4 5 6 7 8 9 11 12 12 12 14 14 14 15 18 19 17 16 16 15 15 16 16 16 17 17 18 18 18
8 9 5 5 4 3 6 11 15 9 4 3 2 2 2 3 4 3 3 4 4 5 4 8 9 10 12 12 9 8 8 9 7 5 3 5 2 4 1 2 3 3 6 7 3 3 4 7 3 4 5 4 3 1 1 1 2 3 4 5 7 8 9 9 10 11 13 14 14 14 14 14 14 14 15 15 15 16 16 16 16 16 17 17 18 18 18
9 7 7 7 7 6 6 7 4 3 3 3 2 1 2 4 5 2 2 5 6 3 5 7 6 8 10 11 10 8 5 4 5 4 3 5 2 1 3 4 2 4 4 6 0 0 3 5 5 3 3 4 2 2 1 2 2 4 5 6 7 7 8 9 10 10 11 12 12 12 13 14 15 14 14 15 14 14 15 15 15 16 19 19 19 18 16
4 5 6 9 7 7 7 3 2 2 1 1 2 4 5 2 2 3 3 5 6 3 7 8 9 9 9 11 10 8 5 4 4 3 3 5 2 3 4 4 3 5 5 3 3 4 5 6 4 3 5 5 3 0 2 2 3 4 5 5 6 7 9 10 11 13 12 12 12 13 13 14 15 14 13 14 14 14 14 14 16 17 18 17 17 16 17
23 16 10 7 4 2 1 2 3 1 4 3 3 3 4 5 6 5 4 4 3 4 3 8 6 5 3 6 8 8 3 3 3 4 3 4 1 2 3 4 3 6 4 4 4 4 6 6 1 5 4 4 1 1 2 3 4 5 6 6 8 9 10 11 12 13 13 13 13 12 13 14 13 13 13 13 13 14 14 13 14 15 16 16 16 15 16
9 6 6 1 3 1 2 4 2 2 4 5 6 7 7 6 6 5 4 4 5 6 8 8 8 8 6 7 7 5 3 3 2 2 4 3 3 3 3 5 6 5 4 4 4 7 4 3 4 5 4 2 1 1 3 4 6 7 7 8 8 9 9 11 11 12 13 12 12 12 12 12 13 13 13 12 13 14 13 13 13 15 16 17 16 16 15
5 3 3 2 3 3 4 3 3 5 8 9 6 7 8 8 8 9 8 3 6 5 8 9 7 8 7 7 4 4 3 2 4 3 3 3 4 4 4 6 4 3 5 7 6 6 2 4 4 5 4 2 1 2 4 5 6 7 7 8 8 9 10 11 11 11 11 12 13 13 13 12 12 12 12 12 12 12 13 13 14 15 15 15 15 15 15
4 4 5 5 5 5 5 5 6 6 5 6 7 8 7 6 5 8 8 6 6 7 6 8 8 7 6 6 4 3 3 3 5 4 3 3 4 5 4 4 3 6 6 7 8 9 4 3 5 3 2 1 2 3 4 5 6 6 7 8 9 10 10 10 11 11 11 12 12 13 12 12 12 13 12 13 12 12 12 12 13 14 14 14 15 16 16
3 1 1 1 2 4 3 7 9 5 3 6 6 6 7 7 7 4 3 8 8 6 6 7 7 7 7 6 3 2 4 3 4 3 3 4 4 3 2 4 6 5 7 8 8 4 3 3 3 2 1 1 2 3 4 5 5 6 7 8 8 9 10 10 11 11 12 13 13 13 12 13 13 12 12 12 12 12 12 13 13 14 14 14 15 14 15
4 2 2 4 5 5 11 8 5 5 2 2 4 5 5 6 7 8 4 4 6 5 7 6 7 6 6 5 4 4 3 3 4 4 3 3 2 4 4 4 6 5 4 6 6 2 3 3 2 1 0 2 3 5 5 5 6 6 7 7 8 9 9 10 10 11 12 13 13 12 12 13 13 13 12 13 14 13 13 12 12 12 13 14 14 14 14
2 3 4 4 2 3 5 7 6 7 5 5 4 7 7 8 9 9 7 7 7 8 7 7 4 3 4 3 4 4 6 3 4 4 3 3 4 5 5 5 5 7 4 3 1 3 2 1 1 0 2 3 4 4 5 4 5 5 6 7 7 8 9 9 10 11 11 11 11 12 12 12 12 12 13 13 13 13 13 12 12 11 12 13 14 14 14
2 2 2 3 3 5 3 3 6 7 6 6 6 7 8 9 9 8 6 8 8 7 7 5 2 3 4 3 4 4 5 3 4 2 4 7 5 5 5 8 6 6 4 1 1 2 1 1 2 3 2 2 3 4 4 4 4 5 6 6 7 8 9 10 11 11 11 11 12 12 12 12 11 12 13 13 12 12 12 12 11 11 12 12 12 13 14
1 2 3 6 7 4 7 7 9 7 9 9 8 7 8 9 9 8 7 7 8 7 6 6 5 5 4 4 4 4 3 3 5 7 6 6 4 5 7 8 6 3 2 3 1 1 2 2 3 3 2 2 2 2 3 3 4 5 6 6 7 8 9 10 10 10 11 11 12 12 12 12 12 13 12 12 12 12 12 11 11 12 12 12 11 12 13
3 5 4 7 7 4 6 2 2 4 6 8 8 8 8 8 8 7 8 8 9 9 9 6 4 5 4 7 5 4 1 1 5 5 7 5 3 6 5 5 4 0 2 3 2 2 3 3 1 1 2 1 2 3 3 4 5 5 6 7 7 8 9 9 10 10 11 11 11 12 12 12 13 12 12 13 12 11 11 11 11 12 12 11 10 11 12
Wind_Direction
342 345 346 346 345 344 344 344 344 346 345 350 346 312 274 328 350 88 344 336 320 293 238 102 39 29 33 312 219 345 251 280 310 288 302 288 191 282 261 332 345 294 316 325 314 335 302 281 293 329 335 331 355 346 310 334 296 287 289 281 6 339 275 294 282 293 293 280 239 242 238 274 268 253 262 262 259 270 281 281 282 279 278 266 260 257 268
344 344 344 345 345 344 343 342 343 341 355 344 319 302 327 330 324 104 111 330 280 296 23 351 8 25 46 296 313 190 306 315 324 314 306 275 287 289 326 308 262 294 321 307 304 338 330 304 335 324 337 318 337 296 268 297 292 307 337 297 64 282 297 298 311 307 315 1 77 317 298 307 288 288 270 264 274 271 269 275 274 270 266 267 269 269 265
342 343 343 345 345 344 342 341 337 339 342 345 319 313 318 284 229 231 122 29 10 44 7 6 343 12 354 325 331 340 271 186 315 308 300 284 261 258 260 255 300 295 299 305 303 290 293 294 298 296 315 315 315 329 296 274 277 275 306 355 312 276 294 301 299 308 308 315 323 339 321 310 303 283 287 280 272 269 267 266 270 271 270 268 263 264 266
342 343 344 344 345 343 341 338 337 335 339 343 326 304 300 352 339 350 341 18 160 106 81 36 347 2 357 301 7 303 327 69 177 339 298 280 277 267 274 226 309 304 340 311 296 297 286 279 302 314 305 308 309 321 315 293 280 271 336 306 277 276 282 280 278 281 284 294 308 318 312 300 291 293 294 293 291 292 286 284 271 262 275 274 268 271 278
341 342 343 345 344 344 343 340 336 334 333 342 325 291 285 292 341 351 341 313 201 26 76 16 353 18 334 323 5 340 352 321 244 103 299 104 289 288 253 237 119 280 328 315 311 275 262 266 282 279 297 314 320 324 318 309 307 103 127 205 258 264 277 270 277 275 275 285 288 293 290 282 281 286 292 291 287 287 282 271 267 282 283 271 262 267 275
339 341 342 345 344 346 346 342 336 333 330 333 316 299 352 324 48 330 53 299 345 344 17 359 343 17 320 353 346 339 333 339 342 328 267 302 274 277 237 211 235 150 169 303 286 311 302 289 284 319 319 317 327 319 337 320 89 165 284 181 239 283 281 287 295 287 285 288 287 284 280 274 275 277 277 277 279 280 277 275 272 272 264 269 280 285 281
335 338 342 343 345 345 348 343 336 333 328 329 296 331 35 4 325 150 78 281 338 353 335 313 323 285 1 297 279 341 336 336 347 321 313 303 291 242 273 302 315 171 265 192 286 301 315 307 323 320 320 320 323 318 328 66 212 282 305 262 259 279 274 288 301 302 296 288 284 283 280 281 277 273 275 277 277 277 279 280 280 276 271 271 277 281 278
323 332 340 345 345 346 347 345 341 333 332 317 354 28 326 28 343 356 322 278 280 279 310 299 286 304 84 289 31 337 325 321 331 332 312 301 299 309 270 268 299 306 305 291 273 264 264 278 290 303 309 303 303 309 302 300 306 308 288 293 307 242 283 318 313 305 293 288 288 284 278 275 273 271 272 274 277 281 278 280 280 279 275 274 272 272 272
316 327 339 345 346 347 350 348 343 333 337 336 12 62 18 0 355 326 302 305 337 300 254 288 309 297 54 338 351 338 340 332 331 314 308 279 280 277 289 314 305 285 278 273 260 251 257 269 277 283 285 290 302 304 295 299 304 307 307 294 274 232 282 299 302 300 291 303 322 275 262 258 264 278 281 273 269 272 270 265 270 286 286 290 288 278 268
310 320 334 342 346 349 354 352 343 339 326 353 4 22 356 296 146 216 297 296 38 296 335 275 266 297 46 341 323 321 323 316 326 316 303 310 293 293 295 302 294 285 274 268 285 314 298 289 287 285 282 277 279 272 273 278 287 297 300 312 298 293 297 299 305 299 288 308 338 212 257 259 259 262 262 265 262 252 264 265 271 265 270 282 279 272 282
306 314 327 337 343 347 358 353 346 341 333 30 338 24 5 9 345 325 304 290 281 288 329 308 301 61 329 341 321 308 306 321 318 306 289 299 300 316 308 290 286 290 290 304 324 308 295 288 284 276 269 266 265 264 262 263 264 276 284 296 286 291 298 292 298 270 297 307 322 187 281 297 14 148 206 192 257 276 267 270 265 264 270 273 285 288 294
300 305 318 331 338 341 359 357 350 346 341 6 341 19 36 339 310 297 331 303 300 316 299 323 323 311 308 328 315 321 320 322 314 307 293 300 300 301 290 280 268 270 305 324 312 305 297 285 270 258 250 251 259 263 258 255 258 249 263 266 285 286 293 284 277 264 284 304 300 294 291 306 62 173 215 210 234 263 264 262 268 277 279 282 286 291 299
295 301 311 321 328 336 346 355 349 346 342 338 4 24 24 355 336 335 318 310 287 317 323 319 333 291 292 318 319 313 315 302 294 291 282 285 292 295 283 279 277 285 314 310 313 306 303 298 299 303 256 226 237 251 257 254 248 242 242 246 258 269 280 297 279 277 280 289 313 309 343 96 85 226 243 247 256 259 260 265 255 249 260 279 287 285 289
276 290 301 303 311 323 331 344 343 338 340 333 14 22 21 340 337 339 356 317 290 291 324 296 251 340 341 323 312 313 309 304 333 304 285 280 279 286 299 295 304 318 308 312 302 298 292 300 322 308 254 206 224 257 243 244 236 227 231 227 236 254 275 283 292 292 304 317 311 302 283 116 26 355 358 351 335 324 301 301 338 109 219 245 272 284 286
268 280 283 287 296 302 316 326 345 325 323 321 333 25 6 23 348 332 339 290 294 294 270 288 352 331 319 310 313 314 313 326 328 327 313 277 259 294 284 290 296 304 315 302 303 305 310 321 320 323 323 309 333 330 238 224 195 225 247 261 242 238 270 292 293 281 296 309 318 325 327 1 12 357 349 347 333 328 327 274 306 125 322 285 275 285 284
266 262 266 270 279 292 299 310 321 256 286 298 280 356 35 7 330 271 298 300 306 297 53 354 327 316 312 306 306 318 321 320 326 309 314 329 350 335 321 336 319 305 282 274 284 299 303 301 289 291 322 329 323 308 318 308 302 219 232 269 251 242 232 255 276 298 305 314 321 334 337 41 357 353 346 343 337 328 355 124 269 27 342 327 335 333 324
259 261 266 265 260 272 286 285 290 294 262 271 306 341 357 110 286 283 269 235 217 254 311 311 310 304 291 294 330 322 335 316 322 324 322 317 320 301 326 342 310 252 243 269 281 280 284 292 306 306 314 344 321 334 308 312 324 316 318 278 279 219 250 249 234 255 308 324 320 343 52 348 358 350 346 344 332 323 294 315 346 340 329 331 336 334 333
248 252 255 258 257 259 263 269 274 278 283 240 277 309 341 124 259 253 237 255 280 282 260 277 333 317 312 331 307 314 306 293 314 332 300 306 290 15 337 316 325 298 233 269 304 297 294 288 302 313 314 336 326 302 320 342 313 322 328 331 327 317 326 310 330 328 322 315 337 315 122 91 0 353 344 344 324 300 355 352 331 326 324 329 333 327 330
244 243 246 248 249 250 242 250 259 268 265 213 261 278 241 208 251 236 271 270 253 258 286 320 307 291 290 293 282 288 284 296 312 304 312 314 17 354 309 325 354 324 327 300 305 283 297 288 294 313 311 307 333 337 339 301 315 320 321 330 332 337 341 321 333 330 334 336 335 343 350 42 348 349 347 350 334 11 345 323 325 317 324 327 330 330 327
240 241 244 243 243 240 246 251 253 250 266 224 241 276 303 270 240 238 252 276 259 268 281 282 281 285 296 292 294 288 301 294 286 290 304 309 355 342 299 195 177 299 290 344 292 319 329 311 317 328 301 322 333 359 288 293 308 325 321 341 313 359 322 337 341 338 326 336 338 356 352 348 351 342 343 10 5 346 315 326 320 325 327 327 327 324 323
236 240 239 239 238 239 239 244 242 244 256 217 222 276 299 149 227 239 250 262 279 291 290 227 285 301 300 288 282 281 277 277 296 304 308 303 318 315 319 6 336 330 316 346 310 314 314 301 318 317 305 294 326 303 315 326 304 100 299 339 329 29 319 344 342 357 328 331 351 356 337 314 327 346 349 352 351 334 338 333 328 330 329 327 319 318 324
230 230 233 234 235 235 235 235 236 238 247 207 215 256 278 191 182 223 235 235 249 247 269 301 302 287 282 274 267 263 264 263 270 286 294 300 306 292 309 293 285 298 326 331 294 291 311 332 314 304 310 308 303 298 324 306 301 326 345 336 301 53 356 345 321 342 339 327 307 314 319 330 346 344 345 345 345 344 341 341 339 330 326 324 309 315 323
227 228 231 233 234 234 231 231 233 231 234 213 202 247 265 300 296 169 237 261 251 262 275 280 282 276 265 259 254 252 249 251 266 274 272 274 280 266 270 294 319 35 327 306 316 311 308 313 295 314 306 300 322 309 297 287 289 328 327 6 39 340 354 337 306 322 323 293 270 288 312 342 339 339 350 341 344 345 343 344 336 324 316 319 318 321 324
225 227 230 230 232 231 230 229 227 222 224 215 211 242 257 275 290 293 265 249 275 300 286 247 280 291 313 326 315 202 219 243 248 254 255 258 259 267 251 243 283 237 275 33 6 306 324 312 301 305 293 304 314 298 302 306 306 338 312 312 349 345 20 339 338 338 328 343 357 348 349 340 334 339 344 344 346 342 340 342 336 331 336 334 326 323 316
223 223 224 227 228 229 229 226 221 221 218 217 216 241 265 276 264 256 285 306 301 311 300 310 291 277 278 274 295 295 285 269 233 215 234 232 243 254 285 48 342 347 331 326 326 288 280 281 290 274 280 297 312 295 304 298 295 342 309 325 333 339 4 325 356 331 328 324 338 351 344 330 328 344 343 344 341 339 341 343 336 339 340 332 327 326 323
223 222 221 221 224 226 227 224 221 218 215 216 226 234 231 245 253 242 270 274 270 269 288 292 303 303 273 274 270 277 284 282 284 215 215 226 231 246 272 297 278 208 263 295 301 294 293 287 284 289 287 291 305 291 291 306 302 311 305 322 3 325 332 352 343 325 320 318 347 344 331 325 339 338 344 339 335 333 337 337 339 345 347 334 329 327 325
223 222 220 218 221 224 225 224 220 216 210 214 225 236 244 250 249 236 232 257 308 279 224 253 270 278 315 304 297 289 267 246 234 232 220 218 230 233 247 254 264 270 267 261 252 260 270 274 280 276 280 288 310 289 294 290 295 308 306 14 359 329 359 352 336 335 332 342 338 345 339 329 327 332 335 332 331 333 336 333 336 338 340 335 332 329 331
223 221 219 216 219 223 224 222 219 210 206 209 230 244 249 251 248 244 234 224 217 261 304 304 304 305 309 281 268 256 253 243 226 220 224 223 223 239 241 240 243 255 258 259 257 243 247 257 260 271 276 288 293 289 289 282 279 281 34 35 17 15 2 349 340 327 317 322 327 335 322 307 313 323 326 329 331 333 333 334 338 338 336 343 335 331 339
222 222 221 219 219 220 221 221 216 207 197 209 236 250 255 245 250 242 235 221 224 254 272 282 290 286 286 339 326 287 253 238 228 225 227 227 226 227 233 239 242 243 247 254 264 276 275 273 287 285 281 351 315 279 296 291 302 328 51 16 21 19 346 338 332 315 303 320 324 325 319 313 315 316 328 331 338 333 330 331 335 334 342 346 332 332 336
220 221 220 219 219 220 219 216 209 196 188 209 223 254 268 258 212 224 217 222 212 230 267 292 299 287 320 304 288 287 235 203 222 225 231 233 232 232 230 231 237 242 246 249 251 259 266 271 264 260 273 288 261 292 284 290 310 81 21 4 359 355 352 347 337 329 319 321 320 323 318 308 309 325 329 330 331 331 333 336 338 333 337 336 335 338 336
219 221 219 219 219 219 218 213 200 180 178 201 198 233 241 246 136 195 114 210 195 217 251 253 264 302 293 265 255 248 253 243 230 230 227 227 231 234 232 228 235 232 239 240 247 254 272 267 271 268 254 238 245 265 285 296 305 142 38 352 357 350 348 339 337 328 324 328 327 322 312 316 330 325 327 333 329 335 336 336 334 336 338 336 339 336 330
219 219 220 218 215 213 213 206 195 175 189 200 200 201 261 20 112 134 152 157 156 225 249 283 292 276 290 288 262 255 249 250 248 233 234 208 218 214 230 232 237 214 231 246 251 258 251 262 261 271 282 177 183 267 278 298 305 337 347 345 351 349 342 334 333 333 341 344 333 328 328 328 331 337 330 331 335 337 339 334 335 338 336 334 343 342 342
218 219 219 218 215 214 211 205 192 182 200 218 295 324 131 147 129 135 162 135 195 239 268 262 264 297 274 299 321 279 233 227 228 231 220 178 213 184 219 216 236 254 162 221 235 253 243 224 228 255 258 154 200 260 301 30 1 338 342 345 347 347 340 338 331 346 350 341 342 331 325 326 329 332 330 330 334 337 338 339 339 338 337 342 346 350 351
218 217 215 212 211 212 214 207 188 182 195 215 220 230 210 159 167 176 157 172 262 250 234 254 273 263 269 298 282 124 162 252 254 210 223 177 210 183 223 195 222 247 201 215 227 239 244 272 254 264 256 209 229 263 256 139 10 341 339 343 350 345 339 340 344 345 341 336 329 322 322 327 326 324 326 335 335 338 340 340 343 344 345 346 348 350 347
215 214 212 207 208 208 205 191 170 186 207 211 243 241 163 171 182 173 173 197 187 213 207 236 246 281 290 289 280 99 312 258 254 183 270 164 191 234 196 213 200 225 230 204 247 250 275 263 252 238 256 126 207 254 275 329 345 345 344 342 350 343 345 344 340 338 334 328 328 330 338 337 333 335 337 337 339 342 343 343 345 347 346 347 345 347 348
210 206 205 201 202 196 198 189 184 183 208 216 195 123 153 173 177 190 203 206 226 249 222 233 213 240 263 283 285 107 335 264 266 264 254 267 208 218 251 248 259 217 215 205 242 249 243 233 223 257 81 242 244 258 329 344 326 339 345 346 345 347 342 336 330 329 327 329 331 333 340 338 337 338 339 339 341 342 342 342 344 347 346 345 345 346 347
199 196 184 183 182 163 186 193 163 196 215 119 120 120 129 162 186 221 220 220 226 246 252 262 244 241 230 269 293 266 263 262 184 228 215 194 246 164 224 238 250 43 180 224 235 251 258 82 257 255 239 270 158 162 337 325 342 339 347 341 337 335 336 336 333 329 327 331 333 342 339 339 338 341 339 340 341 342 341 344 345 345 344 344 343 345 342
180 168 168 172 154 173 176 197 184 138 110 115 121 129 162 192 183 186 195 219 193 178 230 224 246 248 248 253 252 312 271 255 261 278 268 250 268 245 202 240 255 182 248 269 270 226 216 197 243 251 140 105 115 102 349 359 347 354 331 335 334 337 336 335 336 336 337 337 342 342 341 339 339 340 339 338 340 340 339 337 337 338 339 340 342 342 335
164 169 168 180 177 187 196 158 125 123 117 126 119 110 175 195 182 208 207 189 194 217 209 219 238 230 232 239 249 255 259 284 286 268 266 126 219 293 264 260 168 198 272 281 244 133 243 206 198 193 194 156 169 117 320 31 328 345 327 332 325 331 332 335 339 336 336 333 330 331 333 331 332 333 336 334 334 334 335 336 335 337 339 339 342 340 336
168 179 174 159 193 123 95 120 128 115 120 142 177 202 213 180 204 213 150 195 218 217 197 231 225 228 225 232 239 242 203 220 232 246 293 300 194 277 347 307 290 276 277 273 280 139 276 276 178 209 187 169 158 169 248 341 326 352 332 340 334 336 336 337 338 337 336 332 329 327 329 330 331 331 331 332 333 334 335 336 337 336 340 338 340 338 339
181 166 160 168 132 125 126 127 108 89 126 134 148 222 224 209 208 232 190 226 231 225 192 232 199 208 214 228 225 238 155 226 259 289 280 272 37 328 276 262 294 284 278 271 228 205 264 268 260 237 133 131 142 124 323 311 352 338 343 335 334 327 327 324 320 316 324 324 326 328 329 332 331 331 331 334 334 333 334 334 337 337 338 338 340 338 336
148 116 104 92 96 98 113 122 155 137 137 200 201 210 196 225 168 204 222 230 217 220 210 200 223 218 213 204 212 217 189 204 259 255 241 256 209 244 272 285 292 263 268 289 349 269 270 267 261 119 137 136 132 63 329 352 342 332 328 331 320 320 320 323 323 327 330 327 325 329 329 330 330 332 335 335 335 335 336 336 338 339 339 338 337 337 337
99 97 87 90 74 117 175 159 206 203 158 168 195 226 190 210 201 198 206 217 246 253 201 178 219 196 199 188 196 209 208 137 227 211 221 253 251 225 255 264 264 261 267 309 277 282 269 274 33 106 137 126 81 19 356 343 326 321 323 331 335 333 330 326 326 325 327 326 329 330 331 329 332 334 336 336 338 336 338 341 341 339 339 338 339 339 338
90 76 73 60 115 163 193 208 163 171 210 198 181 201 181 198 197 190 222 203 176 230 222 195 196 200 194 187 204 175 194 193 228 272 261 256 260 263 259 254 251 266 282 255 259 262 269 74 127 141 144 147 165 354 348 337 335 334 337 337 326 317 320 321 326 325 328 331 331 331 328 331 333 333 336 336 340 338 337 339 343 341 338 340 341 342 341
96 73 105 134 166 163 150 206 163 207 215 197 203 217 195 204 194 188 211 193 184 227 178 205 199 210 205 167 215 189 217 216 149 226 236 228 238 243 247 262 272 286 276 278 277 278 235 131 131 149 156 151 25 351 344 338 336 331 325 316 320 328 329 331 332 331 330 331 332 330 328 333 332 335 334 335 336 339 338 340 342 343 342 342 342 342 342
138 154 149 159 182 199 205 206 164 212 221 211 206 204 201 199 188 205 221 238 221 223 204 200 193 198 185 163 224 191 172 223 207 220 242 254 253 252 256 268 276 273 274 272 268 265 296 110 161 156 141 358 349 343 338 330 325 322 320 322 329 330 332 332 328 329 329 331 330 330 330 331 333 331 332 332 335 338 341 338 340 342 342 343 345 343 342
96 171 203 221 213 197 207 221 202 205 191 209 206 189 197 196 229 251 232 211 220 223 207 202 198 198 197 172 198 226 222 213 237 228 229 240 240 266 269 273 264 255 260 262 259 284 104 137 127 127 96 321 331 322 314 316 319 322 321 324 324 328 329 328 328 330 332 331 330 331 332 332 331 331 330 331 335 337 339 337 338 340 342 342 345 344 341
151 140 172 203 207 184 205 222 235 210 184 170 189 187 206 220 247 227 208 232 233 217 209 186 200 188 214 192 233 246 220 205 229 241 235 260 256 257 264 256 252 256 256 264 283 54 135 154 162 105 91 318 306 308 315 319 330 324 326 322 326 326 328 326 328 331 331 330 331 331 331 331 330 328 330 331 332 335 339 337 337 340 340 341 343 346 344
130 168 185 227 230 205 219 208 196 203 189 182 194 198 209 212 227 232 206 207 220 210 196 197 197 190 223 192 211 217 232 204 222 235 206 213 236 241 234 242 250 259 256 264 40 101 131 116 77 9 287 300 308 318 322 330 325 327 321 322 323 323 323 324 327 327 328 328 331 330 331 330 327 329 332 333 333 335 335 337 341 341 340 339 341 346 348
156 216 236 233 216 229 195 160 182 207 181 190 196 208 207 213 214 219 190 196 200 199 188 202 209 235 210 171 216 223 235 216 221 233 237 231 227 237 246 255 253 254 282 81 128 142 172 218 218 233 256 289 310 307 320 320 334 311 316 314 317 321 323 325 324 327 328 329 329 331 328 327 329 332 330 330 330 328 330 336 341 341 339 339 340 344 346
250 253 249 210 227 218 149 184 194 200 195 199 193 202 200 204 207 206 184 194 189 200 191 204 186 214 207 202 217 223 231 217 227 228 231 242 240 234 241 247 259 296 36 113 277 327 304 295 275 290 299 286 284 302 313 315 317 317 312 313 318 320 321 321 323 323 324 325 327 327 329 329 331 329 326 326 324 327 329 334 339 341 339 335 340 343 343
190 204 220 207 208 201 190 44 28 228 222 200 200 207 203 208 214 205 178 210 194 200 199 199 197 201 207 217 215 232 242 229 238 236 239 235 230 244 242 246 271 25 245 268 252 213 225 251 317 342 280 274 280 294 307 318 313 309 312 316 318 318 318 322 321 323 322 322 322 326 325 327 329 326 327 326 326 327 332 333 336 337 337 330 336 340 342